Aitkin, MN

6:50 PM CDT on May 21, 2018 (GMT -0500)
Aitkin Municipal / Steve Kurtz Field

Weather History for KAIT - October, 2012

Change the Weather History Date:

Thursday, October 4, 2012

  Actual Average Record
Temperature  
Mean Temperature 48 °F -  
Max Temperature 60 °F 61 °F 78 °F (2011)
Min Temperature 37 °F 38 °F 23 °F (2000)
Degree Days  
Heating Degree Days 16    
Moisture  
Dew Point 33 °F    
Average Humidity 64    
Maximum Humidity 81    
Minimum Humidity 48    
Precipitation  
Precipitation 0.00 in - - ()
Sea Level Pressure  
Sea Level Pressure 29.82 in    
Wind  
Wind Speed 9 mph (WSW)    
Max Wind Speed 23 mph    
Max Gust Speed 34 mph    
Visibility 10 miles    
Events Rain    
Averages and records for this station are not official NWS values.
T = Trace of Precipitation, MM = Missing Value Source: NWS Daily Summary

Daily Weather History Graph

Daily Weather History Graph

Search for Another Location

Airport or City:

Astronomy

Oct. 04, 2012 Rise Set
Actual Time 7:18 AM CDT 6:47 PM CDT
Civil Twilight 6:47 AM CDT 7:17 PM CDT
Nautical Twilight 6:12 AM CDT 7:52 PM CDT
Astronomical Twilight 5:37 AM CDT 8:27 PM CDT
Moon 9:07 PM CDT (10/4) 11:52 AM CDT (10/4)
Length of Visible Light 12h 29m
Length of Day
11h 29m
Waning Gibbous, 82% of the Moon is Illuminated
Oct 4
Waning Gibbous
Oct 8
Last Quarter
Oct 15
New
Oct 21
First Quarter
Oct 29
Full

Hourly Weather History & Observations

Time (CDT) Temp. Windchill Dew Point Humidity Pressure Visibility Wind Dir Wind Speed Gust Speed Precip Events Conditions
12:13 AM 53.6 °F - 39.2 °F 58% 29.81 in 10.0 mi NE 3.5 mph - N/A   Scattered Clouds
12:33 AM 53.6 °F - 39.2 °F 58% 29.81 in 10.0 mi NE 4.6 mph - N/A   Scattered Clouds
12:52 AM 48.2 °F - 39.2 °F 71% 29.79 in 10.0 mi NNE 4.6 mph - N/A   Clear
1:13 AM 50.0 °F - 39.2 °F 66% 29.78 in 10.0 mi NE 4.6 mph - N/A   Clear
1:33 AM 51.8 °F - 39.2 °F 62% 29.77 in 10.0 mi NE 3.5 mph - N/A   Clear
1:52 AM 51.8 °F - 41.0 °F 67% 29.76 in 10.0 mi NE 3.5 mph - N/A   Scattered Clouds
2:13 AM 53.6 °F - 42.8 °F 67% 29.76 in 10.0 mi North 3.5 mph - N/A   Mostly Cloudy
2:33 AM 53.6 °F - 42.8 °F 67% 29.74 in 10.0 mi NE 4.6 mph - N/A   Overcast
2:52 AM 55.4 °F - 42.8 °F 63% 29.72 in 10.0 mi ENE 5.8 mph - N/A   Overcast
3:13 AM 55.4 °F - 42.8 °F 63% 29.70 in 10.0 mi ENE 5.8 mph - N/A   Overcast
3:33 AM 57.2 °F - 42.8 °F 59% 29.69 in 10.0 mi East 3.5 mph - N/A   Mostly Cloudy
3:52 AM 57.2 °F - 42.8 °F 59% 29.66 in 10.0 mi ESE 6.9 mph - N/A   Mostly Cloudy
4:13 AM 59.0 °F - 42.8 °F 55% 29.66 in 10.0 mi SE 8.1 mph - N/A   Mostly Cloudy
4:33 AM 59.0 °F - 42.8 °F 55% 29.65 in 10.0 mi SE 8.1 mph - N/A   Mostly Cloudy
4:52 AM 60.8 °F - 41.0 °F 48% 29.64 in 10.0 mi SE 10.4 mph 18.4 mph N/A   Scattered Clouds
5:13 AM 59.0 °F - 39.2 °F 48% 29.63 in 10.0 mi SE 11.5 mph 18.4 mph N/A   Clear
5:33 AM 57.2 °F - 39.2 °F 51% 29.62 in 10.0 mi SSE 10.4 mph 18.4 mph N/A   Clear
5:52 AM 57.2 °F - 39.2 °F 51% 29.62 in 10.0 mi South 11.5 mph 20.7 mph N/A   Clear
6:13 AM 53.6 °F - 39.2 °F 58% 29.63 in 10.0 mi South 15.0 mph 23.0 mph N/A   Clear
6:32 AM 50.0 °F - 39.2 °F 66% 29.64 in 10.0 mi SSW 16.1 mph 26.5 mph N/A   Scattered Clouds
6:52 AM 48.2 °F - 39.2 °F 71% 29.64 in 10.0 mi South 17.3 mph 25.3 mph N/A   Mostly Cloudy
7:13 AM 48.2 °F - 39.2 °F 71% 29.64 in 10.0 mi South 10.4 mph 19.6 mph N/A   Mostly Cloudy
7:37 AM 48.2 °F - 39.2 °F 71% 29.64 in 10.0 mi SSW 10.4 mph 20.7 mph N/A   Mostly Cloudy
7:52 AM 48.2 °F - 39.2 °F 71% 29.64 in 10.0 mi SSW 10.4 mph 19.6 mph N/A   Mostly Cloudy
8:13 AM 50.0 °F - 39.2 °F 66% 29.65 in 10.0 mi SSW 13.8 mph 23.0 mph N/A   Overcast
8:32 AM 50.0 °F - 39.2 °F 66% 29.66 in 10.0 mi SSW 15.0 mph 31.1 mph N/A   Overcast
8:52 AM 48.2 °F - 39.2 °F 71% 29.67 in 7.0 mi SW 23.0 mph 27.6 mph N/A   Overcast
9:13 AM 46.4 °F 40.1 °F 39.2 °F 76% 29.69 in 4.0 mi SW 15.0 mph 25.3 mph N/A   Haze
9:32 AM 42.8 °F 35.1 °F 37.4 °F 81% 29.70 in 5.0 mi SW 16.1 mph 24.2 mph N/A   Haze
9:52 AM 41.0 °F 33.1 °F 33.8 °F 76% 29.72 in 7.0 mi SW 15.0 mph 26.5 mph N/A   Overcast
10:13 AM 39.2 °F 30.8 °F 33.8 °F 81% 29.73 in 3.0 mi SW 15.0 mph 27.6 mph N/A   Haze
10:32 AM 39.2 °F 29.8 °F 33.8 °F 81% 29.75 in 2.5 mi WSW 18.4 mph 27.6 mph N/A   Haze
10:52 AM 39.2 °F 32.0 °F 32.0 °F 75% 29.76 in 10.0 mi WSW 11.5 mph 23.0 mph N/A   Overcast
11:32 AM 39.2 °F 31.6 °F 30.2 °F 70% 29.78 in 10.0 mi WSW 12.7 mph 28.8 mph N/A   Overcast
11:53 AM 39.2 °F 31.6 °F 30.2 °F 70% 29.79 in 10.0 mi West 12.7 mph 31.1 mph N/A   Overcast
12:13 PM 41.0 °F 32.5 °F 32.0 °F 70% 29.80 in 10.0 mi West 17.3 mph 26.5 mph N/A   Overcast
12:32 PM 42.8 °F 34.8 °F 30.2 °F 61% 29.82 in 10.0 mi WSW 17.3 mph 32.2 mph N/A   Overcast
12:53 PM 42.8 °F 36.6 °F 28.4 °F 57% 29.83 in 10.0 mi WSW 11.5 mph 32.2 mph N/A   Overcast
1:13 PM 42.8 °F 36.2 °F 28.4 °F 57% 29.84 in 10.0 mi West 12.7 mph 24.2 mph N/A   Overcast
1:32 PM 42.8 °F 35.4 °F 28.4 °F 57% 29.85 in 10.0 mi WSW 15.0 mph 24.2 mph N/A   Overcast
1:53 PM 44.6 °F 38.8 °F 26.6 °F 49% 29.85 in 10.0 mi West 11.5 mph 28.8 mph N/A   Overcast
2:13 PM 44.6 °F 37.4 °F 26.6 °F 49% 29.86 in 10.0 mi West 16.1 mph 26.5 mph N/A   Overcast
2:32 PM 42.8 °F 34.3 °F 26.6 °F 53% 29.87 in 10.0 mi West 19.6 mph 28.8 mph N/A   Overcast
2:53 PM 42.8 °F 35.4 °F 28.4 °F 57% 29.89 in 10.0 mi WSW 15.0 mph 25.3 mph N/A   Overcast
3:13 PM 42.8 °F 34.8 °F 28.4 °F 57% 29.90 in 10.0 mi WSW 17.3 mph 34.5 mph N/A   Overcast
3:32 PM 42.8 °F 35.4 °F 28.4 °F 57% 29.91 in 10.0 mi WSW 15.0 mph 27.6 mph N/A   Overcast
3:53 PM 42.8 °F 35.4 °F 30.2 °F 61% 29.92 in 10.0 mi West 15.0 mph 25.3 mph N/A   Overcast
4:12 PM 41.0 °F 33.1 °F 30.2 °F 65% 29.92 in 7.0 mi WSW 15.0 mph 27.6 mph N/A   Overcast
4:33 PM 41.0 °F 34.3 °F 28.4 °F 61% 29.93 in 10.0 mi WSW 11.5 mph 32.2 mph N/A   Overcast
4:52 PM 41.0 °F 34.7 °F 28.4 °F 61% 29.94 in 10.0 mi WSW 10.4 mph 24.2 mph N/A   Overcast
5:12 PM 41.0 °F 34.7 °F 28.4 °F 61% 29.94 in 10.0 mi West 10.4 mph 21.9 mph N/A   Overcast
5:33 PM 41.0 °F 33.5 °F 28.4 °F 61% 29.95 in 10.0 mi West 13.8 mph 25.3 mph N/A   Overcast
5:52 PM 39.2 °F 31.2 °F 28.4 °F 65% 29.96 in 10.0 mi West 13.8 mph 24.2 mph N/A   Overcast
6:12 PM 39.2 °F 30.2 °F 26.6 °F 61% 29.96 in 10.0 mi West 17.3 mph 25.3 mph N/A   Overcast
6:33 PM 39.2 °F 32.0 °F 26.6 °F 61% 29.97 in 10.0 mi West 11.5 mph 24.2 mph N/A   Overcast
6:52 PM 39.2 °F 31.2 °F 26.6 °F 61% 29.97 in 10.0 mi West 13.8 mph 21.9 mph N/A   Overcast
7:12 PM 39.2 °F 30.8 °F 26.6 °F 61% 29.98 in 10.0 mi West 15.0 mph 32.2 mph N/A   Overcast
7:33 PM 37.4 °F 30.3 °F 28.4 °F 70% 29.98 in 10.0 mi West 10.4 mph 24.2 mph N/A   Overcast
8:12 PM 37.4 °F 29.3 °F 28.4 °F 70% 29.98 in 10.0 mi West 12.7 mph 20.7 mph N/A   Overcast
8:33 PM 37.4 °F 28.9 °F 26.6 °F 65% 29.99 in 10.0 mi West 13.8 mph 26.5 mph N/A   Light Drizzle
8:52 PM 37.4 °F 30.3 °F 26.6 °F 65% 29.99 in 10.0 mi West 10.4 mph 20.7 mph N/A Rain Light Rain
9:13 PM 37.4 °F 29.3 °F 26.6 °F 65% 29.99 in 10.0 mi West 12.7 mph 23.0 mph N/A   Overcast
9:33 PM 37.4 °F 29.8 °F 26.6 °F 65% 30.00 in 10.0 mi West 11.5 mph 21.9 mph N/A   Overcast
9:52 PM 37.4 °F 30.8 °F 26.6 °F 65% 30.00 in 10.0 mi West 9.2 mph 19.6 mph N/A   Overcast
10:13 PM 37.4 °F 30.8 °F 26.6 °F 65% 30.00 in 10.0 mi West 9.2 mph 17.3 mph N/A   Overcast
10:33 PM 37.4 °F 30.3 °F 26.6 °F 65% 30.01 in 10.0 mi West 10.4 mph 23.0 mph N/A   Overcast
10:52 PM 37.4 °F 30.8 °F 28.4 °F 70% 30.01 in 10.0 mi West 9.2 mph 20.7 mph N/A   Light Drizzle
11:13 PM 37.4 °F 29.8 °F 26.6 °F 65% 30.01 in 10.0 mi West 11.5 mph 21.9 mph N/A Rain Light Rain
11:33 PM 37.4 °F 31.4 °F 28.4 °F 70% 30.01 in 7.0 mi West 8.1 mph 20.7 mph N/A Rain Light Rain
11:52 PM 37.4 °F 30.3 °F 28.4 °F 70% 30.01 in 10.0 mi West 10.4 mph 20.7 mph N/A   Light Drizzle